sat.trackr.live / text

‹ back to catalog

STARLINK-3243

NORAD 51116 · 2022-005N

PAYLOAD ACTIVE UNKNOWN

§ Identity

Operator
Country
US
Launch date
2022-01-19
Launch site
AFETR
Launch vehicle
Mass (kg)
RCS (m²)

Purposes: comms

External: N2YO · Heavens-Above · Gunter

§ Orbital elements

Epoch: 2026-05-24T20:50:57.973056Z

Period
95.44 min
Inclination
53.2128°
Eccentricity
0.0001898
Mean motion
15.08826884 rev/d
Perigee alt
538.5 km
Apogee alt
541.1 km
Semi-major
6,917.9 km
B*
1.9458e-5
RAAN
307.1103°
Arg perigee
92.4877°
Mean anomaly
267.6332°
Rev number
24,037

§ Raw data

STARLINK-32431 51116U 22005N   26144.86872654  .00000021  00000+0  19458-4 0  99992 51116  53.2128 307.1103 0001898  92.4877 267.6332 15.08826884240370

JSON: /api/v1/satellites/51116 · /tle

For live sub-satellite position, see the globe view (requires WebGL).

§ Visibility from observer

Set your observer location to see the next 7 days of passes ≥ 10°. The values pass through the URL so the page stays shareable.

No JS? Fill the form by hand. The geolocation button needs JavaScript.